This is the latest recevied weather packets stored in our database for station/object W1HVD. If no packets are shown the sender has not sent any weather packets the latest 1 day(s).
| Time | Temp. | Humidity | Pressure | Rain* | Wind** | Luminosity | Snow |
|---|---|---|---|---|---|---|---|
| 1777998273 | 23.89° C | 50% | 1010.4 hPa | 0 mm | 1.34 m/s, 227° | 735 W/m² | - |
| 1777997970 | 23.89° C | 50% | 1010.5 hPa | 0 mm | 2.24 m/s, 193° | 737 W/m² | - |
| 1777997666 | 23.89° C | 52% | 1010.5 hPa | 0 mm | 0.45 m/s, 229° | 735 W/m² | - |
| 1777997364 | 23.33° C | 51% | 1010.7 hPa | 0 mm | 2.24 m/s, 147° | 737 W/m² | - |
| 1777997062 | 23.33° C | 53% | 1010.4 hPa | 0 mm | 1.34 m/s, 105° | 731 W/m² | - |
| 1777996758 | 23.89° C | 53% | 1010.3 hPa | 0 mm | 1.34 m/s, 226° | 728 W/m² | - |
| 1777996455 | 23.89° C | 50% | 1010.3 hPa | 0 mm | 2.68 m/s, 233° | 729 W/m² | - |
| 1777996152 | 23.89° C | 50% | 1010.3 hPa | 0 mm | 1.34 m/s, 236° | 729 W/m² | - |
| 1777995847 | 23.89° C | 51% | 1010.7 hPa | 0 mm | 0.89 m/s, 271° | 728 W/m² | - |
| 1777995544 | 23.33° C | 54% | 1010.4 hPa | 0 mm | 1.34 m/s, 245° | 726 W/m² | - |
| 1777995241 | 23.89° C | 52% | 1010.5 hPa | 0 mm | 0 m/s | 735 W/m² | - |
| 1777994938 | 23.33° C | 53% | 1010.6 hPa | 0 mm | 1.34 m/s, 221° | 738 W/m² | - |
| 1777994636 | 23.33° C | 56% | 1010.6 hPa | 0 mm | 0.89 m/s, 68° | 746 W/m² | - |
| 1777994335 | 22.78° C | 53% | 1010.5 hPa | 0 mm | 1.79 m/s, 245° | 729 W/m² | - |
| 1777994032 | 22.22° C | 56% | 1010.6 hPa | 0 mm | 1.34 m/s, 248° | 717 W/m² | - |
| 1777993729 | 22.22° C | 58% | 1010.7 hPa | 0 mm | 0 m/s | 644 W/m² | - |
| 1777993427 | 21.67° C | 56% | 1010.8 hPa | 0 mm | 0.89 m/s, 262° | 737 W/m² | - |
| 1777993126 | 21.11° C | 57% | 1010.9 hPa | 0 mm | 1.34 m/s, 262° | 651 W/m² | - |
| 1777992825 | 20.56° C | 57% | 1011 hPa | 0 mm | 0.89 m/s, 200° | 795 W/m² | - |
| 1777992522 | 20.56° C | 58% | 1010.9 hPa | 0 mm | 0.89 m/s, 247° | 335 W/m² | - |
| 1777992221 | 20.56° C | 59% | 1010.8 hPa | 0 mm | 2.68 m/s, 286° | 426 W/m² | - |
| 1777991917 | 20.56° C | 59% | 1010.9 hPa | 0 mm | 0.89 m/s, 188° | 692 W/m² | - |
| 1777991615 | 20.56° C | 61% | 1011.1 hPa | 0 mm | 1.79 m/s, 228° | 633 W/m² | - |
| 1777991312 | 20° C | 59% | 1011 hPa | 0 mm | 1.79 m/s, 207° | 651 W/m² | - |
| 1777991009 | 20° C | 61% | 1011.1 hPa | 0 mm | 1.34 m/s, 161° | 450 W/m² | - |
* Rain latest hour (hover to see other rain measurements)
** Current wind speed in m/s (hover to see current wind gust speed)